Wind_Speed
65 66 66 67 68 70 70 69 69 68 67 69 72 72 73 73 72 71 70 69 68 67 66 65 63 61 61 61 60 59 58 57 56 55 54 51 49 47
67 67 68 68 69 69 68 69 69 70 70 70 72 73 72 69 66 64 62 61 60 60 60 60 60 59 59 60 61 61 60 60 59 58 57 55 53 51
66 66 67 66 66 67 67 69 70 72 72 70 70 68 65 61 56 54 52 50 48 48 48 49 50 52 54 56 59 60 61 61 61 60 60 58 57 54
63 63 63 64 64 65 66 68 69 70 69 66 61 57 54 50 47 45 43 40 39 38 39 40 42 44 47 50 53 56 59 61 62 62 61 60 59 58
61 61 60 61 62 63 65 66 65 64 62 57 51 47 43 41 38 35 33 32 31 31 32 33 35 37 39 42 45 48 53 56 59 60 61 61 61 60
59 58 58 59 61 62 61 60 58 54 50 47 41 37 34 33 30 28 28 28 27 28 28 28 29 30 32 34 37 41 45 49 53 57 59 61 61 61
55 55 56 58 58 57 54 51 47 43 39 36 32 28 26 25 24 24 23 24 24 25 24 25 25 25 27 29 32 35 38 42 46 50 54 57 59 60
53 54 54 53 51 48 44 41 37 34 29 25 22 20 19 19 19 19 19 18 18 21 20 20 20 20 22 24 27 30 33 36 40 43 47 51 55 58
51 50 48 45 41 38 34 31 29 25 21 17 16 15 15 16 16 16 16 16 16 17 17 16 16 15 17 20 22 25 27 31 33 37 41 44 48 52
46 43 40 35 32 28 25 23 21 18 16 14 14 14 14 14 14 14 13 13 14 14 13 13 13 12 13 14 17 19 22 25 29 33 36 38 42 46
38 35 31 27 24 21 19 17 14 13 12 12 13 13 14 14 14 14 14 14 13 13 12 11 10 10 10 11 13 15 17 19 23 27 31 34 37 40
30 28 25 21 17 15 13 11 10 11 12 12 13 14 14 15 16 16 15 14 13 12 11 11 10 10 10 9 10 11 13 15 18 21 25 30 33 36
23 21 19 15 12 9 8 9 9 11 12 14 15 16 17 18 18 16 14 11 10 8 8 8 8 8 9 9 9 10 10 12 14 18 22 25 29 32
17 15 12 9 8 7 7 8 10 12 14 16 17 18 18 17 16 13 11 10 9 7 4 2 2 4 5 6 7 8 9 10 12 15 19 22 25 29
10 7 5 5 5 6 7 9 12 14 16 17 18 18 17 16 15 13 12 11 11 10 8 6 4 2 1 2 4 6 8 10 11 13 17 20 24 26
3 3 4 5 6 7 9 11 13 15 16 17 18 18 19 18 18 16 14 13 13 12 11 9 8 6 4 2 2 5 8 10 12 14 17 21 24 27
3 5 6 7 7 8 10 12 13 14 16 17 18 19 20 20 19 17 16 16 16 15 13 12 10 9 8 7 6 5 8 11 14 16 19 22 25 27
7 8 8 8 8 10 11 12 14 15 16 17 18 20 20 20 19 18 17 16 16 16 16 14 13 12 11 10 9 8 9 12 15 18 21 23 25 27
10 10 9 9 10 10 11 13 14 15 16 17 18 20 21 20 20 19 18 17 17 17 17 17 16 15 14 12 12 12 13 14 17 20 22 24 25 26
11 10 10 10 10 11 11 13 14 15 15 16 18 21 22 22 22 20 19 18 17 18 19 19 19 19 18 17 17 17 19 21 21 22 24 24 25 25
11 10 10 10 10 11 12 13 14 15 15 16 18 20 22 23 23 22 21 20 19 19 20 21 21 22 21 21 21 22 24 27 27 26 25 24 23 23
10 10 10 10 11 11 12 13 14 15 15 16 17 19 21 23 23 24 23 23 22 22 22 22 22 23 24 24 23 24 26 28 29 28 28 26 24 22
10 10 10 10 10 11 12 13 14 15 15 16 17 19 20 22 23 24 24 24 25 24 24 24 24 25 25 25 25 26 27 27 27 27 27 28 27 25
Wind_Direction
295 294 294 296 296 297 296 295 293 291 289 288 287 287 287 286 284 282 280 277 275 272 269 267 263 259 255 253 250 248 246 244 242 241 240 239 237 236
297 297 297 297 298 297 295 293 293 292 290 290 289 289 288 287 285 283 280 277 274 271 268 264 260 257 253 250 248 246 244 242 241 239 239 237 236 235
300 299 298 298 297 296 294 294 294 294 294 293 293 292 290 289 286 284 282 278 274 271 267 263 259 255 251 248 245 243 242 240 239 238 237 236 235 234
301 301 299 298 296 296 296 296 296 297 297 297 296 294 292 289 286 285 283 279 275 270 267 264 261 257 252 248 245 242 240 239 237 236 236 235 234 234
301 300 299 297 297 298 298 299 299 300 300 300 298 295 292 289 288 286 283 280 277 273 269 266 263 258 254 249 245 242 239 237 236 235 234 233 233 232
301 299 299 299 299 300 301 302 302 303 302 302 300 296 292 290 289 287 285 283 279 275 271 268 264 259 255 251 246 242 240 237 235 234 233 232 232 231
300 300 300 301 302 303 304 305 306 306 306 304 302 298 293 291 292 291 289 285 282 279 274 270 266 261 256 251 246 243 240 237 235 234 232 231 230 229
301 301 302 304 305 306 308 309 311 312 312 310 307 304 300 299 299 298 296 292 287 285 285 280 273 263 257 251 246 242 239 237 235 233 232 230 229 227
301 302 304 306 308 309 312 314 316 318 318 318 317 314 312 310 308 305 302 299 293 289 288 283 276 266 258 251 246 242 239 236 233 231 230 228 227 225
302 304 307 309 311 313 316 319 321 324 327 329 328 326 325 322 319 314 311 307 301 298 294 286 277 268 260 251 245 241 238 235 232 230 227 224 223 221
305 308 311 314 316 318 322 325 328 334 339 340 338 335 331 327 322 317 312 308 303 297 293 286 277 268 259 251 245 241 237 234 230 226 223 221 219 217
309 312 316 319 323 327 333 338 343 347 348 347 344 339 334 329 325 321 318 313 306 295 286 279 273 266 258 252 246 240 235 230 225 221 218 216 215 213
309 312 316 323 332 341 347 353 358 358 354 351 347 342 338 334 331 330 331 329 325 315 296 280 270 262 254 249 244 238 231 225 220 215 211 209 207 205
308 311 318 333 347 357 6 9 5 0 357 355 352 349 345 344 346 351 358 0 1 358 352 321 281 262 250 242 239 232 225 218 213 208 204 200 198 197
308 316 340 5 19 24 20 14 9 6 5 6 6 6 6 10 17 23 28 34 39 42 47 55 62 78 177 226 227 216 209 203 198 193 190 187 185 186
327 16 44 50 49 38 27 20 16 16 19 21 23 23 24 27 32 39 45 50 49 52 55 57 60 61 61 67 157 180 184 184 181 178 176 176 176 176
69 77 76 69 54 40 31 27 27 29 32 34 32 33 34 35 41 47 51 56 56 57 57 58 58 59 61 68 85 129 157 166 169 170 169 170 171 172
92 87 79 67 55 45 39 38 39 41 43 43 41 39 40 41 46 51 54 58 59 57 55 55 58 63 67 70 81 104 133 150 157 161 164 166 169 170
95 87 76 68 60 52 48 49 50 51 52 50 49 47 47 48 50 54 57 59 61 59 57 58 60 66 74 80 89 102 116 133 146 151 155 159 163 168
93 83 75 69 63 57 58 60 58 60 59 56 55 54 54 54 55 57 60 63 65 66 66 66 66 70 78 86 95 103 112 118 129 139 145 151 157 163
88 79 72 68 64 63 67 67 65 66 65 62 60 58 57 58 59 60 63 66 69 72 72 71 71 75 81 86 93 102 109 114 119 127 135 141 148 155
81 74 70 68 69 71 75 74 70 69 68 65 62 59 58 59 61 63 66 70 74 76 78 77 77 79 83 87 92 99 105 111 117 123 128 132 136 142
75 70 68 69 74 79 82 80 76 74 72 68 65 61 60 61 62 63 66 71 75 78 80 82 83 84 85 89 93 97 102 106 111 117 124 129 134 139
Height
5701 5694 5688 5681 5674 5667 5659 5652 5647 5644 5640 5630 5620 5610 5600 5594 5588 5583 5579 5577 5575 5575 5575 5576 5578 5581 5584 5588 5592 5596 5602 5608 5614 5620 5626 5632 5639 5645
5684 5678 5671 5664 5657 5649 5641 5633 5625 5619 5617 5610 5598 5589 5580 5572 5565 5560 5557 5554 5553 5552 5552 5553 5555 5558 5562 5567 5571 5577 5583 5589 5596 5604 5611 5618 5625 5633
5667 5661 5654 5647 5639 5631 5623 5614 5605 5596 5591 5587 5575 5566 5559 5552 5547 5542 5538 5536 5535 5533 5533 5533 5535 5538 5541 5546 5551 5557 5563 5570 5578 5586 5594 5602 5611 5619
5652 5645 5637 5630 5622 5613 5605 5595 5586 5576 5568 5564 5556 5547 5541 5535 5531 5527 5524 5522 5521 5520 5519 5519 5520 5522 5524 5528 5532 5538 5545 5552 5560 5568 5577 5587 5596 5604
5637 5629 5621 5613 5605 5596 5587 5578 5568 5559 5550 5544 5539 5532 5527 5521 5518 5516 5513 5511 5510 5509 5508 5508 5508 5509 5510 5513 5517 5522 5528 5536 5544 5552 5560 5569 5579 5589
5621 5613 5605 5597 5589 5581 5572 5562 5553 5545 5537 5530 5525 5520 5516 5511 5509 5507 5505 5503 5501 5500 5499 5498 5498 5498 5500 5502 5506 5510 5515 5520 5527 5535 5544 5553 5563 5573
5606 5598 5591 5582 5574 5566 5558 5549 5541 5534 5527 5520 5515 5511 5508 5504 5502 5500 5498 5496 5494 5491 5491 5490 5490 5490 5491 5492 5495 5499 5503 5508 5514 5521 5529 5538 5547 5557
5592 5585 5577 5569 5562 5554 5546 5539 5532 5525 5519 5514 5509 5505 5503 5500 5497 5495 5492 5490 5488 5486 5484 5484 5482 5483 5483 5484 5486 5489 5493 5498 5503 5509 5516 5524 5532 5542
5580 5573 5566 5559 5552 5546 5539 5532 5526 5520 5515 5510 5507 5503 5500 5497 5494 5491 5488 5486 5484 5481 5479 5478 5477 5477 5477 5478 5480 5482 5485 5489 5493 5498 5504 5512 5520 5529
5568 5562 5556 5551 5545 5539 5533 5528 5523 5517 5513 5509 5505 5502 5498 5495 5491 5488 5485 5483 5480 5477 5475 5474 5473 5473 5473 5473 5474 5476 5478 5481 5485 5489 5495 5501 5509 5517
5558 5553 5549 5544 5539 5534 5529 5525 5521 5517 5512 5509 5505 5501 5497 5493 5490 5486 5483 5480 5477 5475 5473 5471 5471 5470 5470 5470 5471 5472 5473 5476 5478 5482 5487 5493 5500 5508
5551 5547 5543 5539 5535 5531 5527 5524 5520 5517 5513 5509 5505 5501 5496 5492 5488 5484 5480 5476 5474 5471 5470 5469 5468 5468 5468 5468 5469 5469 5470 5472 5474 5477 5481 5487 5493 5501
5546 5543 5539 5536 5533 5529 5526 5524 5520 5517 5513 5509 5505 5500 5495 5490 5485 5481 5477 5474 5471 5468 5467 5466 5466 5465 5466 5466 5467 5467 5468 5470 5472 5474 5478 5483 5489 5496
5542 5540 5537 5534 5532 5529 5527 5524 5521 5518 5514 5509 5504 5499 5494 5489 5484 5480 5476 5473 5470 5468 5466 5465 5464 5464 5464 5464 5465 5466 5467 5469 5470 5473 5477 5481 5487 5493
5539 5538 5536 5534 5532 5530 5528 5525 5522 5519 5515 5510 5505 5499 5494 5489 5484 5481 5477 5474 5472 5469 5467 5466 5465 5464 5464 5464 5464 5465 5466 5468 5470 5473 5477 5482 5487 5494
5538 5537 5536 5534 5533 5531 5529 5527 5524 5520 5516 5512 5507 5502 5497 5492 5487 5484 5481 5478 5475 5473 5471 5469 5467 5466 5465 5464 5464 5464 5466 5468 5471 5475 5479 5484 5489 5496
5538 5537 5536 5536 5534 5533 5531 5528 5526 5522 5519 5515 5511 5506 5501 5496 5492 5488 5485 5482 5480 5478 5475 5473 5471 5469 5467 5466 5465 5465 5467 5469 5472 5476 5481 5487 5493 5499
5539 5539 5538 5537 5536 5535 5533 5531 5528 5525 5522 5519 5515 5511 5506 5502 5497 5494 5491 5488 5486 5483 5480 5477 5475 5473 5471 5470 5469 5468 5469 5471 5474 5479 5484 5490 5496 5503
5541 5541 5540 5539 5538 5537 5535 5533 5531 5529 5526 5523 5520 5516 5512 5507 5503 5500 5497 5494 5492 5489 5486 5483 5480 5478 5476 5475 5474 5473 5473 5474 5478 5482 5488 5494 5500 5507
5544 5543 5543 5542 5541 5540 5538 5536 5535 5533 5531 5528 5526 5522 5518 5514 5510 5507 5503 5501 5498 5496 5493 5490 5487 5485 5483 5482 5481 5479 5479 5480 5483 5488 5493 5499 5505 5511
5547 5546 5545 5545 5544 5543 5541 5540 5538 5537 5535 5533 5531 5528 5525 5521 5517 5514 5511 5508 5505 5503 5500 5498 5496 5493 5492 5490 5489 5488 5487 5488 5491 5495 5500 5506 5512 5517
5550 5549 5548 5548 5547 5546 5545 5544 5542 5541 5540 5539 5537 5534 5531 5528 5525 5521 5518 5515 5513 5510 5508 5506 5504 5503 5501 5500 5500 5499 5498 5499 5500 5503 5507 5513 5518 5524
5553 5552 5551 5551 5550 5549 5548 5547 5547 5546 5545 5544 5542 5540 5538 5535 5532 5529 5526 5523 5521 5518 5516 5515 5513 5512 5511 5510 5510 5510 5510 5510 5512 5514 5516 5519 5523 5528